WA8SIE Weather Reports


time (UTC)temp
C
wind
direction
speed
KPH
gust
KPH
rain 1hr
cm
rain 24hr
cm
rain mn
cm
humidity
%
barometer
mb
20260903152512 31 207 0.0 0.0 0.00 0.00 0.00 64 1012.7
20260903152010 31 300 0.0 0.0 0.00 0.00 0.00 66 1012.7
20260903151510 31 300 0.0 0.0 0.00 0.00 0.00 67 1012.7
20260903151012 31 191 0.0 0.0 0.00 0.00 0.00 68 1012.6
20260903150510 30 191 0.0 6.4 0.00 0.00 0.00 68 1012.6
20260903150010 30 191 0.0 0.0 0.00 0.00 0.00 67 1012.6
20260903145510 30 307 0.0 0.0 0.00 0.00 0.00 69 1012.7
20260903145010 30 309 0.0 0.0 0.00 0.00 0.00 68 1012.7
20260903144010 30 319 0.0 4.8 0.00 0.00 0.00 70 1012.8
20260903143510 30 319 0.0 0.0 0.00 0.00 0.00 70 1012.8
20260903143011 30 200 0.0 0.0 0.00 0.00 0.00 72 1012.8
20260903142011 29 200 0.0 0.0 0.00 0.00 0.00 73 1012.7
20260903141511 28 200 0.0 4.8 0.00 0.00 0.00 74 1012.7
20260903141013 28 200 0.0 0.0 0.00 0.00 0.00 75 1012.7
20260903140511 28 200 1.6 0.0 0.00 0.00 0.00 75 1012.7
20260903140011 28 123 0.0 0.0 0.00 0.00 0.00 78 1012.7
20260903135511 28 123 0.0 0.0 0.00 0.00 0.00 78 1012.8
20260903135011 28 124 0.0 0.0 0.00 0.00 0.00 79 1012.8
20260903134511 27 124 0.0 0.0 0.00 0.00 0.00 83 1012.8
20260903133511 27 124 0.0 0.0 0.00 0.00 0.00 82 1012.9
20260903133011 27 124 0.0 0.0 0.00 0.00 0.00 84 1012.9
20260903132513 26 123 0.0 0.0 0.00 0.00 0.00 86 1013.2
20260903131511 25 123 0.0 0.0 0.00 0.00 0.00 89 1013.2
20260903131013 25 124 3.2 0.0 0.00 0.00 0.00 90 1013.3
20260903130513 25 124 0.0 0.0 0.00 0.00 0.00 91 1013.3
20260903130011 25 123 0.0 3.2 0.00 0.00 0.00 93 1013.3
20260903125511 24 124 0.0 0.0 0.00 0.00 0.00 94 1013.3
20260903125012 24 124 0.0 0.0 0.00 0.00 0.00 95 1013.3
20260903124511 24 123 0.0 0.0 0.00 0.00 0.00 98 1013.3
20260903123511 23 198 0.0 0.0 0.00 0.00 0.00 100 1013.4
20260903123011 23 199 0.0 0.0 0.00 0.00 0.00 100 1013.4
20260903122511 23 199 0.0 0.0 0.00 0.00 0.00 100 1013.4
20260903122011 23 199 0.0 0.0 0.00 0.00 0.00 100 1013.4
20260903121511 23 199 0.0 0.0 0.00 0.00 0.00 100 1013.4
20260903121011 22 198 0.0 0.0 0.00 0.00 0.00 100 1013.3
20260903120511 22 198 0.0 0.0 0.00 0.00 0.00 100 1013.3
20260903120011 22 198 0.0 1.6 0.00 0.00 0.00 100 1013.3
20260903115512 22 198 0.0 1.6 0.00 0.00 0.00 100 1013.3
20260903115011 22 199 0.0 3.2 0.00 0.00 0.00 100 1013.3
20260903114511 22 199 0.0 3.2 0.00 0.00 0.00 100 1013.3
20260903114013 22 199 1.6 3.2 0.00 0.00 0.00 100 1013.2
20260903113511 22 198 0.0 0.0 0.00 0.00 0.00 100 1013.2
20260903113011 22 198 0.0 0.0 0.00 0.00 0.00 100 1013.2
20260903112511 22 198 0.0 0.0 0.00 0.00 0.00 100 1013.0
20260903112010 22 198 0.0 0.0 0.00 0.00 0.00 100 1013.0
20260903111511 22 198 0.0 0.0 0.00 0.00 0.00 100 1013.0
20260903111011 22 198 0.0 0.0 0.00 0.00 0.00 100 1012.8
20260903110511 22 199 0.0 0.0 0.00 0.00 0.00 100 1012.8
20260903110012 22 198 0.0 0.0 0.00 0.00 0.00 100 1012.8
20260903105512 22 199 0.0 0.0 0.00 0.00 0.00 100 1012.6
20260903105011 22 199 0.0 3.2 0.00 0.00 0.00 100 1012.6
20260903104011 22 198 3.2 3.2 0.00 0.00 0.00 100 1012.5
20260903103510 22 199 0.0 0.0 0.00 0.00 0.00 100 1012.5
20260903103011 22 199 0.0 0.0 0.00 0.00 0.00 100 1012.5
20260903102512 22 198 0.0 0.0 0.00 0.00 0.00 100 1012.4
20260903101511 22 198 0.0 0.0 0.00 0.00 0.00 100 1012.4
20260903101011 22 198 0.0 3.2 0.00 0.00 0.00 100 1012.3
20260903100510 22 199 0.0 3.2 0.00 0.00 0.00 100 1012.3
20260903100011 22 198 0.0 4.8 0.00 0.00 0.00 100 1012.3
20260903095511 22 199 0.0 4.8 0.00 0.00 0.00 100 1012.4
20260903095011 22 199 0.0 0.0 0.00 0.00 0.00 100 1012.4
20260903094511 22 199 0.0 0.0 0.00 0.00 0.00 100 1012.4
20260903094011 22 198 0.0 0.0 0.00 0.00 0.00 100 1012.3
20260903093512 22 199 0.0 0.0 0.00 0.00 0.00 100 1012.3
20260903093011 22 199 0.0 0.0 0.00 0.00 0.00 100 1012.3
20260903092511 22 199 0.0 0.0 0.00 0.00 0.00 100 1012.2
20260903092011 22 198 0.0 0.0 0.00 0.00 0.00 100 1012.2
20260903091511 22 199 0.0 0.0 0.00 0.00 0.00 100 1012.2
20260903091010 22 198 0.0 0.0 0.00 0.00 0.00 100 1012.0
20260903090511 22 198 0.0 0.0 0.00 0.00 0.00 100 1012.0
20260903090010 22 198 0.0 0.0 0.00 0.00 0.00 100 1012.0
20260903085011 22 198 0.0 0.0 0.00 0.00 0.00 100 1012.0
20260903084512 22 198 0.0 0.0 0.00 0.00 0.00 100 1012.0
20260903084010 22 198 0.0 0.0 0.00 0.00 0.00 100 1012.0
20260903083511 22 199 0.0 0.0 0.00 0.00 0.00 100 1012.0
20260903083010 22 198 0.0 0.0 0.00 0.00 0.00 100 1012.0
20260903082511 22 199 0.0 0.0 0.00 0.00 0.00 100 1012.1
20260903082010 22 199 0.0 0.0 0.00 0.00 0.00 100 1012.1
20260903081510 22 199 0.0 0.0 0.00 0.00 0.00 100 1012.1
20260903081011 22 199 0.0 0.0 0.00 0.00 0.00 100 1012.1
20260903080510 22 199 0.0 0.0 0.00 0.00 0.00 100 1012.1
20260903075510 23 198 0.0 3.2 0.00 0.00 0.00 100 1012.1
20260903074511 23 199 0.0 0.0 0.00 0.00 0.00 100 1012.1
20260903074010 23 199 0.0 0.0 0.00 0.00 0.00 100 1012.0
20260903073510 23 199 0.0 0.0 0.00 0.00 0.00 100 1012.0
20260903073010 23 199 0.0 0.0 0.00 0.00 0.00 100 1012.0
20260903072512 23 198 0.0 0.0 0.00 0.00 0.00 100 1011.9
20260903072010 23 199 0.0 0.0 0.00 0.00 0.00 100 1011.9
20260903071012 23 199 0.0 0.0 0.00 0.00 0.00 100 1011.9
20260903070512 23 199 0.0 0.0 0.00 0.00 0.00 100 1011.9
20260903065510 23 199 0.0 0.0 0.00 0.00 0.00 100 1011.9
20260903064512 23 199 0.0 0.0 0.00 0.00 0.00 100 1011.9
20260903064010 23 199 0.0 0.0 0.00 0.00 0.00 100 1011.7
20260903063512 23 199 0.0 0.0 0.00 0.00 0.00 100 1011.7
20260903062510 23 199 0.0 0.0 0.00 0.00 0.00 100 1011.8
20260903062010 23 199 0.0 0.0 0.00 0.00 0.00 100 1011.8
20260903061512 23 199 0.0 0.0 0.00 0.00 0.00 100 1011.8
20260903061010 23 199 0.0 0.0 0.00 0.00 0.00 100 1011.8
20260903060510 23 198 0.0 0.0 0.00 0.00 0.00 100 1011.8
20260903060011 23 199 0.0 0.0 0.00 0.00 0.00 100 1011.8
20260903055513 23 199 0.0 0.0 0.00 0.00 0.00 100 1011.8
20260903055011 23 198 0.0 0.0 0.00 0.00 0.00 100 1011.8
20260903054013 23 198 0.0 0.0 0.00 0.00 0.00 100 1011.8
20260903053511 23 198 0.0 0.0 0.00 0.00 0.00 100 1011.8
20260903053011 23 199 0.0 0.0 0.00 0.00 0.00 100 1011.8
20260903052511 23 199 0.0 0.0 0.00 0.00 0.00 100 1011.8
20260903051511 24 198 0.0 0.0 0.00 0.00 0.00 99 1011.8
20260903051011 24 198 0.0 0.0 0.00 0.00 0.00 99 1011.8
20260903050511 24 199 0.0 0.0 0.00 0.00 0.00 99 1011.8
20260903050011 24 199 0.0 0.0 0.00 0.00 0.00 99 1011.8
20260903045511 24 199 0.0 0.0 0.00 0.00 0.00 99 1011.8
20260903045011 24 199 0.0 0.0 0.00 0.00 0.00 99 1011.8
20260903044511 24 198 0.0 0.0 0.00 0.00 0.00 99 1011.8
20260903044011 24 199 0.0 0.0 0.00 0.00 0.00 99 1011.7
20260903043511 24 198 0.0 0.0 0.00 0.00 0.00 98 1011.7
20260903043011 24 198 0.0 4.8 0.00 0.00 0.00 98 1011.7
20260903042013 24 199 0.0 0.0 0.00 0.00 0.00 98 1011.7
20260903041511 24 198 0.0 0.0 0.00 0.00 0.00 98 1011.7
20260903041011 24 198 0.0 0.0 0.00 0.00 0.00 98 1011.8
20260903040511 24 199 0.0 0.0 0.00 0.00 0.00 97 1011.8
20260903040011 25 198 0.0 3.2 0.00 0.00 0.00 97 1011.8
20260903035511 25 198 0.0 3.2 0.00 0.00 0.00 97 1011.8
20260903035011 25 199 0.0 0.0 0.00 0.00 0.00 97 1011.8
20260903034511 25 199 0.0 0.0 0.00 0.00 0.00 97 1011.8
20260903034012 25 198 0.0 0.0 0.00 0.00 0.00 97 1011.9
20260903033512 25 198 0.0 0.0 0.00 0.00 0.00 96 1011.9
20260903033011 25 199 0.0 0.0 0.00 0.00 0.00 96 1011.9
20260903032511 25 199 0.0 0.0 0.00 0.00 0.00 96 1011.9
20260903031511 25 199 0.0 0.0 0.00 0.00 0.00 95 1011.9
20260903031011 25 199 0.0 0.0 0.00 0.00 0.00 95 1012.0
20260903030512 25 199 0.0 0.0 0.00 0.00 0.00 95 1012.0
20260903030011 25 199 0.0 0.0 0.00 0.00 0.00 95 1012.0
20260903025511 25 199 0.0 0.0 0.00 0.00 0.00 95 1011.9
20260903025012 25 199 0.0 0.0 0.00 0.00 0.00 95 1011.9
20260903024510 25 198 0.0 0.0 0.00 0.00 0.00 95 1011.9
20260903024011 25 199 0.0 0.0 0.00 0.00 0.00 94 1011.9
20260903023511 25 199 0.0 0.0 0.00 0.00 0.00 94 1011.9
20260903023011 25 199 0.0 0.0 0.00 0.00 0.00 94 1011.9
20260903022510 25 199 0.0 0.0 0.00 0.00 0.00 94 1011.8
20260903022012 25 198 0.0 0.0 0.00 0.00 0.00 94 1011.8
20260903021011 26 199 0.0 1.6 0.00 0.00 0.00 93 1011.9
20260903020510 26 199 0.0 1.6 0.00 0.00 0.00 92 1011.9
20260903020011 26 199 0.0 0.0 0.00 0.00 0.00 92 1011.9
20260903015011 26 199 0.0 0.0 0.00 0.00 0.00 91 1012.0
20260903014511 26 199 0.0 0.0 0.00 0.00 0.00 91 1012.0
20260903014012 26 199 0.0 0.0 0.00 0.00 0.00 91 1011.9
20260903013512 26 199 0.0 0.0 0.00 0.00 0.00 91 1011.9
20260903013010 26 199 0.0 0.0 0.00 0.00 0.00 90 1011.9
20260903012511 26 199 0.0 0.0 0.00 0.00 0.00 90 1011.8
20260903012011 26 199 0.0 0.0 0.00 0.00 0.00 89 1011.8
20260903011510 26 198 0.0 0.0 0.00 0.00 0.00 88 1011.8
20260903011011 27 198 0.0 0.0 0.00 0.00 0.00 88 1011.6
20260903010510 27 199 0.0 0.0 0.00 0.00 0.00 87 1011.6
20260903010011 27 199 0.0 0.0 0.00 0.00 0.00 87 1011.6
20260903005512 27 199 0.0 0.0 0.00 0.00 0.00 86 1011.5
20260903005011 27 199 0.0 0.0 0.00 0.00 0.00 85 1011.5
20260903004512 27 198 0.0 0.0 0.00 0.00 0.00 84 1011.5
20260903004011 27 199 0.0 1.6 0.00 0.00 0.00 83 1011.4
20260903003510 27 199 0.0 1.6 0.00 0.00 0.00 83 1011.4
20260903003010 27 199 0.0 0.0 0.00 0.00 0.00 82 1011.4
20260903002511 28 198 0.0 0.0 0.00 0.00 0.00 81 1011.4
20260903002010 28 198 0.0 1.6 0.00 0.00 0.00 79 1011.4
20260903001510 28 199 0.0 4.8 0.00 0.00 0.00 79 1011.4
20260903001011 28 199 0.0 4.8 0.00 0.00 0.00 78 1011.4
20260903000010 28 198 0.0 0.0 0.00 0.00 0.00 77 1011.4
20260902235510 28 199 0.0 0.0 0.00 0.00 0.00 77 1011.3
20260902235011 28 199 0.0 0.0 0.00 0.00 0.00 76 1011.3
20260902234510 28 198 0.0 0.0 0.00 0.00 0.00 76 1011.3
20260902233510 29 198 0.0 0.0 0.00 0.00 0.00 73 1011.3
20260902233010 29 199 0.0 0.0 0.00 0.00 0.00 71 1011.3
20260902232010 30 198 0.0 0.0 0.00 0.00 0.00 70 1011.3
20260902231010 30 199 0.0 0.0 0.00 0.00 0.00 67 1011.4
20260902230512 30 198 0.0 0.0 0.00 0.00 0.00 65 1011.4
20260902225510 31 199 0.0 0.0 0.00 0.00 0.00 66 1011.4
20260902225010 31 199 0.0 0.0 0.00 0.00 0.00 64 1011.4
20260902224510 31 199 0.0 0.0 0.00 0.00 0.00 63 1011.4
20260902224010 31 198 0.0 0.0 0.00 0.00 0.00 63 1011.3
20260902223510 32 199 0.0 0.0 0.00 0.00 0.00 60 1011.3
20260902222011 32 199 0.0 0.0 0.00 0.00 0.00 60 1011.4
20260902221511 32 199 0.0 0.0 0.00 0.00 0.00 53 1011.4
20260902221010 32 199 0.0 0.0 0.00 0.00 0.00 57 1011.5
20260902220511 32 199 0.0 0.0 0.00 0.00 0.00 53 1011.5
20260902220011 32 199 0.0 1.6 0.00 0.00 0.00 52 1011.5
20260902215511 32 199 0.0 4.8 0.00 0.00 0.00 51 1011.5
20260902215011 33 199 0.0 8.0 0.00 0.00 0.00 51 1011.5
20260902214511 33 178 0.0 8.0 0.00 0.00 0.00 49 1011.5
20260902214013 33 197 0.0 3.2 0.00 0.00 0.00 50 1011.4
20260902213513 33 198 0.0 6.4 0.00 0.00 0.00 49 1011.4
20260902213011 33 198 0.0 6.4 0.00 0.00 0.00 48 1011.4
20260902212511 33 197 0.0 6.4 0.00 0.00 0.00 49 1011.5
20260902211011 33 180 0.0 4.8 0.00 0.00 0.00 53 1011.8
20260902210511 33 179 0.0 4.8 0.00 0.00 0.00 49 1011.8
20260902210011 33 233 0.0 3.2 0.00 0.00 0.00 49 1011.8
20260902205511 33 301 1.6 3.2 0.00 0.00 0.00 53 1011.9
20260902205011 33 184 0.0 0.0 0.00 0.00 0.00 49 1011.9
20260902204012 33 184 0.0 0.0 0.00 0.00 0.00 55 1011.9
20260902203011 33 304 0.0 0.0 0.00 0.00 0.00 55 1011.9
20260902202511 33 303 0.0 0.0 0.00 0.00 0.00 51 1011.9
20260902201011 33 195 0.0 8.0 0.00 0.00 0.00 48 1012.0
20260902200511 33 205 0.0 8.0 0.00 0.00 0.00 49 1012.0
20260902200011 33 129 0.0 8.0 0.00 0.00 0.00 48 1012.0
20260902195511 33 191 0.0 8.0 0.00 0.00 0.00 51 1012.3
20260902195013 33 188 0.0 9.7 0.00 0.00 0.00 48 1012.3
20260902194511 34 200 0.0 9.7 0.00 0.00 0.00 48 1012.3
20260902194013 34 332 0.0 3.2 0.00 0.00 0.00 49 1012.3
20260902193511 34 201 0.0 0.0 0.00 0.00 0.00 48 1012.3
20260902193012 34 201 0.0 0.0 0.00 0.00 0.00 49 1012.3
20260902192511 33 200 0.0 0.0 0.00 0.00 0.00 50 1012.4
20260902192011 33 201 0.0 6.4 0.00 0.00 0.00 50 1012.4
20260902191513 33 201 0.0 6.4 0.00 0.00 0.00 49 1012.4
20260902191012 34 190 0.0 1.6 0.00 0.00 0.00 50 1012.4
20260902190511 33 138 0.0 14.5 0.00 0.00 0.00 49 1012.4
20260902185511 33 201 0.0 9.7 0.00 0.00 0.00 50 1012.6
20260902185011 34 217 3.2 0.0 0.00 0.00 0.00 50 1012.6
20260902184511 34 293 0.0 0.0 0.00 0.00 0.00 52 1012.6
20260902184011 33 0.0 0.0 0.00 0.00 0.00 52 1012.8
20260902183511 33 186 0.0 11.3 0.00 0.00 0.00 51 1012.8
20260902183013 33 186 0.0 11.3 0.00 0.00 0.00 49 1012.8
20260902182514 34 227 0.0 6.4 0.00 0.00 0.00 51 1012.8
20260902182010 33 272 0.0 6.4 0.00 0.00 0.00 53 1012.8
20260902181011 33 202 0.0 6.4 0.00 0.00 0.00 52 1013.0
20260902180511 33 214 0.0 8.0 0.00 0.00 0.00 52 1013.0
20260902180011 33 197 0.0 8.0 0.00 0.00 0.00 52 1013.0
20260902174510 32 198 0.0 1.6 0.00 0.00 0.00 54 1013.2
20260902174012 32 198 0.0 1.6 0.00 0.00 0.00 55 1013.4
20260902173511 32 197 0.0 0.0 0.00 0.00 0.00 58 1013.4
20260902172512 33 197 0.0 6.4 0.00 0.00 0.00 55 1013.6
20260902172011 33 330 0.0 6.4 0.00 0.00 0.00 56 1013.6
20260902171511 33 322 0.0 4.8 0.00 0.00 0.00 56 1013.6
20260902171010 32 274 0.0 0.0 0.00 0.00 0.00 58 1013.8
20260902170011 32 204 0.0 8.0 0.00 0.00 0.00 57 1013.8
20260902165510 32 188 0.0 4.8 0.00 0.00 0.00 58 1014.1
20260902165011 32 207 0.0 14.5 0.00 0.00 0.00 58 1014.1
20260902164012 32 177 8.0 11.3 0.00 0.00 0.00 59 1014.4
20260902163512 32 214 0.0 0.0 0.00 0.00 0.00 58 1014.4
20260902163010 32 214 0.0 4.8 0.00 0.00 0.00 60 1014.4
20260902162511 32 214 0.0 4.8 0.00 0.00 0.00 58 1014.5
20260902162010 32 195 0.0 0.0 0.00 0.00 0.00 60 1014.5
20260902161511 32 195 0.0 0.0 0.00 0.00 0.00 61 1014.5
20260902161012 32 215 0.0 0.0 0.00 0.00 0.00 63 1014.6
20260902160510 32 215 0.0 0.0 0.00 0.00 0.00 61 1014.6
20260902160011 32 215 0.0 3.2 0.00 0.00 0.00 65 1014.6
20260902155511 32 304 0.0 9.7 0.00 0.00 0.00 63 1014.6
20260902155012 32 268 0.0 9.7 0.00 0.00 0.00 61 1014.6
20260902154511 32 271 0.0 0.0 0.00 0.00 0.00 63 1014.6
20260902154011 31 255 0.0 0.0 0.00 0.00 0.00 63 1014.7
20260902153510 31 225 0.0 0.0 0.00 0.00 0.00 64 1014.7
20260902153011 31 223 0.0 0.0 0.00 0.00 0.00 65 1014.7